Regional Weather Roundup
Issued by NWS

Home | Current Version | Previous Version | Graphics & Text | Print | Product List | Glossary On
Versions: 1 2 3 4 5 6 7 8 9 10 11 12 13 14 15 16 17 18 19 20 21 22 23 24 25 26 27 28 29 30 31 32 33 34 35 36 37 38 39 40 41 42 43 44 45 46 47 48 49 50
000
ASUS45 KSLC 181810
RWRUT

UTAH REGIONAL WEATHER ROUNDUP
NATIONAL WEATHER SERVICE SALT LAKE CITY UT
1100 AM MST WED JAN 18 2017

UTZ001>011-023>025-181900-

NORTHERN UTAH

CITY           SKY/WX    TMP DP  RH WIND       PRES   REMARKS
BRIGHAM CITY     N/A     17  12  79 S5        30.16F WCI  10
DUGWAY         FOG       22  21  96 E2        30.16F VSB 1/2
HILL AFB         N/A     20   9  61 E10       30.12F WCI   9
LOGAN            N/A      6   4  91 W7        30.15F FOG     WCI  -6
OGDEN            N/A     24  13  62 NE6       30.14S WCI  17
SALT LAKE CITY   N/A     28  20  71 NW5       30.15S WCI  23
TOOELE VALLEY  CLOUDY    27  23  86 CALM      30.16S FOG
WENDOVER       CLOUDY    21  18  86 NE5       30.15F WCI  15
HEBER CITY       N/A     12  10  92 CALM      30.13S
WEST JORDAN      N/A     26  23  88 CALM      30.13F

$$

UTZ011>015-024>027-181900-

CENTRAL/NORTHEAST UTAH

CITY           SKY/WX    TMP DP  RH WIND       PRES   REMARKS
PROVO AIRPORT    N/A     31  20  63 SE5       30.15F WCI  26
MOAB/CANYONLAN   N/A     34  25  69 N5        30.15F WCI  30
DELTA            N/A     30  25  80 E5        30.12F WCI  25
PRICE            N/A     24   9  52 CALM      30.12S
ROOSEVELT      LGT SNOW  19  12  73 W5        30.26F WCI  13
VERNAL         LGT SNOW  16  10  77 NE3       30.22F

$$

UTZ013>016-019>022-027-181900-

SOUTHERN UTAH

CITY           SKY/WX    TMP DP  RH WIND       PRES   REMARKS
BRYCE CANYON     N/A     17  14  88 CALM      30.11F
CEDAR CITY       N/A     39  27  62 SW10      30.09F WCI  32
MILFORD          N/A     34  25  69 S12       30.10F WCI  25
ST GEORGE        N/A     37  27  65 S3        30.20F
HANKSVILLE       N/A     32  23  69 MISG      30.20S
BLANDING         N/A     37  30  75 CALM      30.21F

$$

REGIONAL REPORTS     COLORADO/ARIZONA

CITY           SKY/WX    TMP DP  RH WIND       PRES   REMARKS
CRAIG, CO      CLOUDY     8   5  87 CALM      30.16F
GRAND JUNCTION CLOUDY    35  27  72 CALM      30.15F
RIFLE, CO      CLOUDY    35  24  64 CALM      30.14F
MONTROSE, CO   SUNNY     38  25  59 N3        30.15F
CORTEZ, CO     PTSUNNY   38  29  70 W7        30.14F WCI  33
COLORADO CITY    N/A     45  32  61 SE5       30.18S
PAGE, AZ         N/A     40  25  55 N3        30.15F
GRAND CANYON     N/A     40  30  67 SW10      30.16S WCI  33
KINGMAN, AZ      N/A     50  24  36 SW5       30.16S
FLAGSTAFF, AZ    N/A     40  26  57 W6        30.16F

$$

REGIONAL REPORTS    NEVADA/IDAHO/WYOMING

CITY           SKY/WX    TMP DP  RH WIND       PRES   REMARKS
LAS VEGAS, NV    N/A     48  21  34 CALM      30.16R
ELY, NY          N/A     26  12  55 S10       30.06F WCI  16
ELKO, NV       CLOUDY    15   6  67 E6        30.08S WCI   6
POCATELLO, ID  CLOUDY    14   9  80 SE5       30.09R WCI   6
BURLEY, ID       N/A     28  16  60 E3        30.01S
FORT BRIDGER,    N/A     14   7  73 S7        30.08S WCI   4
EVANSTON, WY   CLOUDY    19   8  62 S6        30.05F WCI  11
ROCK SPRINGS,  CLOUDY     4   0  83 S3        30.07S

$$



USA.gov is the U.S. government's official web portal to all federal, state and local government web resources and services.